Location: State Camp
(41.2367°N, 77.7828°W)
Time: 06:20:18
(UTC-04:00)

ADEOS Rocket - Visible Passes

Search period start: 28 July 2014 00:00
Search period end: 07 August 2014 00:00
Orbit: 858 x 1308 km, 98.7° (Epoch: 27 July)

Date Brightness Start Highest point End Pass type
(mag) Time Alt. Az. Time Alt. Az. Time Alt. Az.
28 Jul 3.0 22:28:18 22° S 22:32:28 78° WSW 22:38:13 10° NNW visible
29 Jul 3.4 21:38:52 15° SE 21:43:41 44° ENE 21:49:02 10° N visible
29 Jul 4.5 23:25:50 16° SW 23:29:20 27° W 23:34:08 10° NW visible
30 Jul 3.2 22:36:24 23° S 22:40:16 66° WSW 22:45:55 10° NNW visible
31 Jul 3.2 21:46:58 17° SE 21:51:25 51° ENE 21:56:52 10° N visible
31 Jul 4.7 23:33:56 15° SW 23:37:11 22° W 23:41:33 10° NW visible
01 Aug 4.3 20:58:33 10° ESE 21:02:52 22° ENE 21:06:59 10° NNE visible
01 Aug 3.4 22:44:30 24° S 22:48:04 56° W 22:53:36 10° NNW visible
02 Aug 3.0 21:55:04 20° SE 21:59:11 60° ENE 22:04:40 10° N visible
02 Aug 4.9 23:42:02 13° SW 23:45:03 18° W 23:48:54 10° NW visible
03 Aug 4.1 21:05:57 10° ESE 21:10:33 25° ENE 21:14:58 10° NNE visible
03 Aug 3.6 22:52:36 24° SSW 22:55:52 47° W 23:01:15 10° NNW visible
04 Aug 2.8 22:03:09 23° SSE 22:06:56 71° ENE 22:12:27 10° N visible
04 Aug 5.1 23:50:07 11° WSW 23:52:56 15° W 23:56:04 10° WNW visible
05 Aug 3.9 21:13:43 11° ESE 21:18:16 28° ENE 21:22:55 10° N visible
05 Aug 3.9 23:00:41 23° SSW 23:03:41 39° W 23:08:52 10° NNW visible
06 Aug 2.7 22:11:15 26° SSE 22:14:41 83° ENE 22:20:14 10° NNW visible
06 Aug 5.2 23:58:41 10° WSW 00:00:00 12° W 00:00:00 12° W visible
